Simultaneous Nadir Overpasses (SNOs) Predictions

Prediction of SNOs between GOES-16 and NOAA-20 Satellite Orbit:

Table of predicted SNOs for the next 14.0 days since TLE Epoch: 11/30/2018
Index Date Time (GOES-16) GOES-16 Lat,Lon NOAA-20 Lat,Lon Distance(km) Time Diff (sec)
1 12/01/2018 18:16:21 -0.01, -75.21 0.56, -72.69 287.50 80
2 12/03/2018 06:38:08 0.00, -75.21 0.61, -77.95 312.30 80
3 12/04/2018 06:16:43 0.01, -75.21 -0.37, -73.41 204.76 80
4 12/05/2018 18:38:39 -0.00, -75.22 -0.80, -78.72 398.54 80
5 12/06/2018 18:22:35 -0.00, -75.23 0.24, -74.19 118.82 80
6 12/08/2018 06:44:22 -0.00, -75.24 0.93, -79.45 479.97 80
7 12/09/2018 06:22:57 -0.01, -75.25 -0.11, -74.93 37.66 80
8 12/11/2018 18:26:08 0.02, -75.28 -0.08, -75.69 47.03 80
9 12/12/2018 18:10:04 0.02, -75.29 0.97, -71.16 471.13 80
10 12/14/2018 06:31:51 -0.02, -75.32 0.21, -76.43 126.28 80




NCC Satellite Simultaneous Nadir Overpasses (SNOs) Prediction Service
